| time (UTC) | temp F | wind direction | speed knots | gust knots | rain 1hr in | rain 24hr in | rain mn in | humidity % | barometer mb |
| 20260903023325 | 66 | 199 | 7.8 | 21.7 | 0.00 | 0.00 | 0.00 | 85 | 1017.0 |
| 20260903022826 | 67 | 251 | 8.7 | 21.7 | 0.00 | 0.00 | 0.00 | 84 | 1016.9 |
| 20260903022325 | 66 | 177 | 7.8 | 16.5 | 0.00 | 0.00 | 0.00 | 83 | 1016.9 |
| 20260903021824 | 66 | 227 | 7.0 | 16.5 | 0.00 | 0.00 | 0.00 | 84 | 1016.9 |
| 20260903021325 | 66 | 187 | 7.0 | 14.8 | 0.00 | 0.00 | 0.00 | 84 | 1017.1 |
| 20260903020821 | 66 | 220 | 7.0 | 14.8 | 0.00 | 0.00 | 0.00 | 84 | 1017.0 |
| 20260903020323 | 66 | 196 | 5.2 | 14.8 | 0.00 | 0.00 | 0.00 | 84 | 1017.0 |
| 20260903015821 | 66 | 158 | 6.1 | 13.9 | 0.00 | 0.00 | 0.00 | 84 | 1017.0 |
| 20260903015322 | 66 | 220 | 6.1 | 13.9 | 0.00 | 0.00 | 0.00 | 83 | 1017.0 |
| 20260903014824 | 66 | 172 | 6.1 | 13.0 | 0.00 | 0.00 | 0.00 | 83 | 1017.0 |
| 20260903014321 | 66 | 190 | 5.2 | 12.2 | 0.00 | 0.00 | 0.00 | 82 | 1017.2 |
| 20260903014308 | 66 | 177 | 5.2 | 11.3 | 0.00 | 0.00 | 0.00 | 82 | 1017.3 |
| 20260903014030 | 66 | 228 | 5.2 | 10.4 | 0.00 | 0.00 | 0.00 | 82 | 1017.2 |
| 20260903013313 | 66 | 209 | 5.2 | 11.3 | 0.00 | 0.00 | 0.00 | 82 | 1017.3 |
| 20260903012323 | 66 | 220 | 5.2 | 13.0 | 0.00 | 0.00 | 0.00 | 81 | 1017.3 |
| 20260903011823 | 66 | 231 | 6.1 | 13.0 | 0.00 | 0.00 | 0.00 | 81 | 1017.3 |
| 20260903011321 | 66 | 207 | 5.2 | 12.2 | 0.00 | 0.00 | 0.00 | 81 | 1017.4 |
| 20260903010818 | 66 | 180 | 4.3 | 11.3 | 0.00 | 0.00 | 0.00 | 81 | 1017.5 |
| 20260903010317 | 66 | 215 | 5.2 | 12.2 | 0.00 | 0.00 | 0.00 | 80 | 1017.7 |
| 20260903005817 | 66 | 183 | 5.2 | 13.0 | 0.00 | 0.00 | 0.00 | 80 | 1017.6 |
| 20260903005317 | 66 | 232 | 5.2 | 13.0 | 0.00 | 0.00 | 0.00 | 80 | 1017.6 |
| 20260903004817 | 66 | 183 | 6.1 | 13.9 | 0.00 | 0.00 | 0.00 | 80 | 1017.6 |
| 20260903004319 | 66 | 187 | 5.2 | 13.9 | 0.00 | 0.00 | 0.00 | 79 | 1017.6 |
| 20260903003819 | 66 | 229 | 6.1 | 13.9 | 0.00 | 0.00 | 0.00 | 79 | 1017.8 |
| 20260903003315 | 66 | 199 | 6.1 | 13.9 | 0.00 | 0.00 | 0.00 | 79 | 1017.8 |
| 20260903003258 | 67 | 203 | 6.1 | 14.8 | 0.00 | 0.00 | 0.00 | 78 | 1018.0 |
| 20260903002319 | 67 | 224 | 7.0 | 14.8 | 0.00 | 0.00 | 0.00 | 77 | 1018.1 |
| 20260903001816 | 67 | 247 | 6.1 | 13.0 | 0.00 | 0.00 | 0.00 | 77 | 1018.0 |
| 20260903001317 | 66 | 228 | 5.2 | 13.0 | 0.00 | 0.00 | 0.00 | 77 | 1018.0 |
| 20260903000817 | 66 | 176 | 4.3 | 10.4 | 0.00 | 0.00 | 0.00 | 77 | 1018.0 |
| 20260903000317 | 66 | 210 | 5.2 | 13.0 | 0.00 | 0.00 | 0.00 | 77 | 1018.0 |
| 20260902235814 | 67 | 210 | 6.1 | 13.0 | 0.00 | 0.00 | 0.00 | 77 | 1018.0 |
| 20260902235315 | 66 | 208 | 6.1 | 12.2 | 0.00 | 0.00 | 0.00 | 77 | 1018.0 |
| 20260902234814 | 66 | 210 | 6.1 | 13.9 | 0.00 | 0.00 | 0.00 | 77 | 1018.3 |
| 20260902234314 | 66 | 216 | 7.0 | 14.8 | 0.00 | 0.00 | 0.00 | 77 | 1018.4 |
| 20260902233816 | 67 | 200 | 7.0 | 14.8 | 0.00 | 0.00 | 0.00 | 77 | 1018.3 |
| 20260902233316 | 67 | 219 | 6.1 | 14.8 | 0.00 | 0.00 | 0.00 | 76 | 1018.2 |
| 20260902232817 | 67 | 217 | 7.0 | 17.4 | 0.00 | 0.00 | 0.00 | 76 | 1018.4 |
| 20260902232309 | 67 | 187 | 7.0 | 17.4 | 0.00 | 0.00 | 0.00 | 76 | 1018.4 |
| 20260902231809 | 67 | 216 | 6.1 | 14.8 | 0.00 | 0.00 | 0.00 | 76 | 1018.5 |
| 20260902231313 | 67 | 216 | 7.0 | 19.1 | 0.00 | 0.00 | 0.00 | 76 | 1018.5 |
| 20260902230810 | 66 | 215 | 7.0 | 19.1 | 0.00 | 0.00 | 0.00 | 76 | 1018.6 |
| 20260902230310 | 66 | 223 | 6.1 | 13.9 | 0.00 | 0.00 | 0.00 | 77 | 1018.7 |
| 20260902225812 | 66 | 209 | 5.2 | 13.9 | 0.00 | 0.00 | 0.00 | 78 | 1018.7 |
| 20260902225308 | 65 | 204 | 5.2 | 13.9 | 0.00 | 0.00 | 0.00 | 78 | 1018.7 |
| 20260902224809 | 65 | 211 | 5.2 | 9.6 | 0.00 | 0.00 | 0.00 | 80 | 1018.7 |
| 20260902224311 | 65 | 214 | 4.3 | 9.6 | 0.00 | 0.00 | 0.00 | 80 | 1018.8 |
| 20260902223808 | 65 | 219 | 4.3 | 10.4 | 0.00 | 0.00 | 0.00 | 81 | 1018.8 |
| 20260902223308 | 65 | 188 | 4.3 | 10.4 | 0.00 | 0.00 | 0.00 | 81 | 1018.9 |
| 20260902222806 | 65 | 182 | 3.5 | 8.7 | 0.00 | 0.00 | 0.00 | 81 | 1019.0 |
| 20260902222745 | 65 | 203 | 2.6 | 7.0 | 0.00 | 0.00 | 0.00 | 81 | 1018.9 |
| 20260902222238 | 65 | 218 | 4.3 | 13.0 | 0.00 | 0.00 | 0.00 | 81 | 1019.1 |
| 20260902221307 | 65 | 179 | 5.2 | 13.0 | 0.00 | 0.00 | 0.00 | 80 | 1019.1 |
| 20260902220807 | 65 | 222 | 5.2 | 13.0 | 0.00 | 0.00 | 0.00 | 80 | 1019.2 |
| 20260902220309 | 66 | 234 | 6.1 | 16.5 | 0.00 | 0.00 | 0.00 | 79 | 1019.2 |
| 20260902215806 | 66 | 229 | 7.8 | 17.4 | 0.00 | 0.00 | 0.00 | 78 | 1019.4 |
| 20260902215742 | 67 | 299 | 8.7 | 17.4 | 0.00 | 0.00 | 0.00 | 77 | 1019.4 |
| 20260902214803 | 67 | 235 | 7.0 | 14.8 | 0.00 | 0.00 | 0.00 | 76 | 1019.2 |
| 20260902214304 | 67 | 208 | 7.8 | 15.6 | 0.00 | 0.00 | 0.00 | 77 | 1019.2 |
| 20260902213806 | 66 | 231 | 7.0 | 15.6 | 0.00 | 0.00 | 0.00 | 77 | 1019.1 |
| 20260902213307 | 66 | 204 | 5.2 | 13.9 | 0.00 | 0.00 | 0.00 | 79 | 1019.0 |
| 20260902213255 | 66 | 208 | 5.2 | 13.9 | 0.00 | 0.00 | 0.00 | 81 | 1019.1 |
| 20260902212740 | 66 | 157 | 5.2 | 13.9 | 0.00 | 0.00 | 0.00 | 82 | 1019.1 |
| 20260902212003 | 65 | 147 | 4.3 | 13.9 | 0.00 | 0.00 | 0.00 | 83 | 1019.1 |
| 20260902211503 | 65 | 186 | 2.6 | 6.1 | 0.00 | 0.00 | 0.00 | 85 | 1019.1 |
| 20260902210306 | 65 | 199 | 3.5 | 6.1 | 0.00 | 0.00 | 0.00 | 85 | 1019.2 |
| 20260902205805 | 65 | 160 | 3.5 | 7.0 | 0.00 | 0.00 | 0.00 | 85 | 1019.2 |
| 20260902205306 | 65 | 165 | 3.5 | 7.0 | 0.00 | 0.00 | 0.00 | 85 | 1019.2 |
| 20260902204806 | 65 | 153 | 2.6 | 6.1 | 0.00 | 0.00 | 0.00 | 85 | 1019.3 |
| 20260902204306 | 65 | 177 | 3.5 | 6.1 | 0.00 | 0.00 | 0.00 | 85 | 1019.3 |
| 20260902204248 | 65 | 181 | 4.3 | 7.0 | 0.00 | 0.00 | 0.00 | 85 | 1019.3 |
| 20260902203305 | 65 | 165 | 4.3 | 7.0 | 0.00 | 0.00 | 0.00 | 85 | 1019.3 |
| 20260902202802 | 65 | 200 | 3.5 | 7.0 | 0.00 | 0.00 | 0.00 | 85 | 1019.3 |
| 20260902202306 | 65 | 163 | 1.7 | 6.1 | 0.00 | 0.00 | 0.00 | 85 | 1019.4 |
| 20260902201804 | 65 | 166 | 1.7 | 5.2 | 0.00 | 0.00 | 0.00 | 85 | 1019.5 |
| 20260902201302 | 65 | 195 | 1.7 | 5.2 | 0.00 | 0.00 | 0.00 | 85 | 1019.4 |
| 20260902200805 | 65 | 160 | 2.6 | 4.3 | 0.00 | 0.00 | 0.00 | 85 | 1019.5 |
| 20260902200303 | 65 | 162 | 2.6 | 4.3 | 0.00 | 0.00 | 0.00 | 85 | 1019.6 |
| 20260902200243 | 65 | 187 | 1.7 | 4.3 | 0.00 | 0.00 | 0.00 | 85 | 1019.6 |
| 20260902195306 | 65 | 189 | 1.7 | 4.3 | 0.00 | 0.00 | 0.00 | 85 | 1019.6 |
| 20260902194801 | 65 | 158 | 1.7 | 4.3 | 0.00 | 0.00 | 0.00 | 85 | 1019.5 |
| 20260902194303 | 66 | 177 | 1.7 | 4.3 | 0.00 | 0.00 | 0.00 | 84 | 1019.6 |
| 20260902193803 | 66 | 175 | 1.7 | 3.5 | 0.00 | 0.00 | 0.00 | 84 | 1019.5 |
| 20260902193303 | 66 | 185 | 1.7 | 4.3 | 0.00 | 0.00 | 0.00 | 84 | 1019.7 |
| 20260902192800 | 66 | 183 | 2.6 | 5.2 | 0.00 | 0.00 | 0.00 | 84 | 1019.8 |
| 20260902192741 | 66 | 174 | 2.6 | 6.1 | 0.00 | 0.00 | 0.00 | 83 | 1019.7 |
| 20260902191759 | 66 | 168 | 2.6 | 6.1 | 0.00 | 0.00 | 0.00 | 83 | 1019.8 |
| 20260902191257 | 66 | 200 | 2.6 | 4.3 | 0.00 | 0.00 | 0.00 | 82 | 1019.9 |
| 20260902190756 | 66 | 172 | 2.6 | 4.3 | 0.00 | 0.00 | 0.00 | 82 | 1020.0 |
| 20260902190254 | 66 | 227 | 1.7 | 5.2 | 0.00 | 0.00 | 0.00 | 82 | 1019.9 |
| 20260902185755 | 66 | 171 | 2.6 | 5.2 | 0.00 | 0.00 | 0.00 | 82 | 1019.8 |
| 20260902185248 | 66 | 176 | 2.6 | 5.2 | 0.00 | 0.00 | 0.00 | 82 | 1019.8 |
| 20260902184746 | 67 | 189 | 2.6 | 4.3 | 0.00 | 0.00 | 0.00 | 81 | 1019.7 |
| 20260902184245 | 67 | 177 | 2.6 | 4.3 | 0.00 | 0.00 | 0.00 | 81 | 1019.7 |
| 20260902184234 | 67 | 169 | 1.7 | 4.3 | 0.00 | 0.00 | 0.00 | 81 | 1019.7 |
| 20260902183246 | 67 | 183 | 1.7 | 5.2 | 0.00 | 0.00 | 0.00 | 80 | 1019.8 |
| 20260902183218 | 67 | 330 | 2.6 | 6.1 | 0.00 | 0.00 | 0.00 | 80 | 1019.7 |
| 20260902182245 | 67 | 179 | 2.6 | 6.1 | 0.00 | 0.00 | 0.00 | 80 | 1019.7 |
| 20260902181745 | 67 | 217 | 2.6 | 4.3 | 0.00 | 0.00 | 0.00 | 80 | 1019.7 |
| 20260902181245 | 67 | 193 | 2.6 | 7.0 | 0.00 | 0.00 | 0.00 | 80 | 1019.8 |
| 20260902180746 | 67 | 186 | 2.6 | 7.0 | 0.00 | 0.00 | 0.00 | 79 | 1019.8 |
| 20260902180245 | 67 | 199 | 2.6 | 7.0 | 0.00 | 0.00 | 0.00 | 79 | 1020.0 |
| 20260902180225 | 67 | 209 | 2.6 | 8.7 | 0.00 | 0.00 | 0.00 | 79 | 1020.0 |
| 20260902175246 | 68 | 251 | 2.6 | 8.7 | 0.00 | 0.00 | 0.00 | 79 | 1020.0 |
| 20260902174745 | 68 | 220 | 4.3 | 9.6 | 0.00 | 0.00 | 0.00 | 79 | 1019.9 |
| 20260902174246 | 68 | 184 | 4.3 | 9.6 | 0.00 | 0.00 | 0.00 | 78 | 1019.9 |
| 20260902173746 | 68 | 170 | 2.6 | 7.8 | 0.00 | 0.00 | 0.00 | 78 | 1019.9 |
| 20260902173245 | 68 | 210 | 3.5 | 7.8 | 0.00 | 0.00 | 0.00 | 78 | 1019.8 |
| 20260902173220 | 68 | 330 | 3.5 | 7.0 | 0.00 | 0.00 | 0.00 | 77 | 1020.0 |
| 20260902172242 | 68 | 181 | 3.5 | 8.7 | 0.00 | 0.00 | 0.00 | 77 | 1020.0 |
| 20260902171745 | 68 | 213 | 3.5 | 8.7 | 0.00 | 0.00 | 0.00 | 77 | 1019.9 |
| 20260902171243 | 68 | 228 | 4.3 | 8.7 | 0.00 | 0.00 | 0.00 | 77 | 1020.0 |
| 20260902170740 | 68 | 216 | 4.3 | 9.6 | 0.00 | 0.00 | 0.00 | 76 | 1019.9 |
| 20260902170239 | 68 | 224 | 4.3 | 9.6 | 0.00 | 0.00 | 0.00 | 76 | 1020.0 |
| 20260902165742 | 69 | 216 | 5.2 | 10.4 | 0.00 | 0.00 | 0.00 | 76 | 1020.0 |
| 20260902165242 | 69 | 251 | 4.3 | 10.4 | 0.00 | 0.00 | 0.00 | 76 | 1020.0 |
| 20260902164741 | 69 | 202 | 3.5 | 7.8 | 0.00 | 0.00 | 0.00 | 76 | 1020.0 |
| 20260902164241 | 69 | 199 | 3.5 | 7.8 | 0.00 | 0.00 | 0.00 | 76 | 1020.0 |
| 20260902163739 | 69 | 185 | 4.3 | 7.8 | 0.00 | 0.00 | 0.00 | 76 | 1020.0 |
| 20260902163241 | 69 | 218 | 4.3 | 9.6 | 0.00 | 0.00 | 0.00 | 76 | 1020.0 |
| 20260902162740 | 69 | 229 | 3.5 | 9.6 | 0.00 | 0.00 | 0.00 | 76 | 1020.1 |
| 20260902162240 | 69 | 222 | 3.5 | 7.8 | 0.00 | 0.00 | 0.00 | 76 | 1020.1 |
| 20260902161741 | 69 | 204 | 4.3 | 8.7 | 0.00 | 0.00 | 0.00 | 76 | 1020.2 |
| 20260902161240 | 69 | 216 | 5.2 | 12.2 | 0.00 | 0.00 | 0.00 | 75 | 1020.1 |
| 20260902161211 | 69 | 230 | 5.2 | 12.2 | 0.00 | 0.00 | 0.00 | 75 | 1020.1 |
| 20260902160235 | 69 | 229 | 5.2 | 10.4 | 0.00 | 0.00 | 0.00 | 76 | 1020.3 |
| 20260902155735 | 69 | 173 | 6.1 | 10.4 | 0.00 | 0.00 | 0.00 | 76 | 1020.4 |
| 20260902155237 | 69 | 216 | 6.1 | 11.3 | 0.00 | 0.00 | 0.00 | 76 | 1020.4 |
| 20260902154735 | 69 | 228 | 5.2 | 11.3 | 0.00 | 0.00 | 0.00 | 77 | 1020.4 |
| 20260902154237 | 69 | 236 | 5.2 | 10.4 | 0.00 | 0.00 | 0.00 | 77 | 1020.5 |
| 20260902154219 | 69 | 259 | 5.2 | 9.6 | 0.00 | 0.00 | 0.00 | 77 | 1020.5 |
| 20260902153944 | 69 | 229 | 5.2 | 10.4 | 0.00 | 0.00 | 0.00 | 77 | 1020.5 |
| 20260902152731 | 69 | 220 | 6.1 | 11.3 | 0.00 | 0.00 | 0.00 | 76 | 1020.5 |
| 20260902152233 | 69 | 238 | 6.1 | 12.2 | 0.00 | 0.00 | 0.00 | 75 | 1020.5 |
| 20260902151734 | 69 | 223 | 6.1 | 13.0 | 0.00 | 0.00 | 0.00 | 75 | 1020.5 |
| 20260902151231 | 69 | 248 | 7.8 | 14.8 | 0.00 | 0.00 | 0.00 | 74 | 1020.6 |
| 20260902150734 | 69 | 190 | 7.0 | 14.8 | 0.00 | 0.00 | 0.00 | 74 | 1020.6 |
| 20260902150729 | 69 | 268 | 6.1 | 13.9 | 0.00 | 0.00 | 0.00 | 74 | 1020.6 |
| 20260902150445 | 69 | 270 | 6.1 | 13.9 | 0.00 | 0.00 | 0.00 | 73 | 1020.7 |
| 20260902145236 | 69 | 247 | 5.2 | 10.4 | 0.00 | 0.00 | 0.00 | 75 | 1020.6 |
| 20260902144735 | 69 | 233 | 6.1 | 13.0 | 0.00 | 0.00 | 0.00 | 75 | 1020.7 |
| 20260902144230 | 69 | 224 | 6.1 | 13.0 | 0.00 | 0.00 | 0.00 | 73 | 1020.7 |
| 20260902143732 | 69 | 245 | 7.8 | 16.5 | 0.00 | 0.00 | 0.00 | 73 | 1020.7 |
| 20260902143232 | 70 | 216 | 8.7 | 16.5 | 0.00 | 0.00 | 0.00 | 74 | 1020.7 |
| 20260902142731 | 70 | 241 | 7.0 | 13.9 | 0.00 | 0.00 | 0.00 | 74 | 1020.6 |
| 20260902142232 | 70 | 266 | 7.0 | 13.9 | 0.00 | 0.00 | 0.00 | 74 | 1020.6 |
| 20260902142207 | 70 | 246 | 7.8 | 13.9 | 0.00 | 0.00 | 0.00 | 72 | 1020.7 |
| 20260902141246 | 70 | 265 | 7.8 | 15.6 | 0.00 | 0.00 | 0.00 | 71 | 1020.6 |
| 20260902141234 | 70 | 184 | 7.0 | 13.9 | 0.00 | 0.00 | 0.00 | 72 | 1020.6 |
| 20260902140233 | 71 | 229 | 7.0 | 15.6 | 0.00 | 0.00 | 0.00 | 70 | 1020.6 |
| 20260902135732 | 71 | 212 | 7.0 | 14.8 | 0.00 | 0.00 | 0.00 | 71 | 1020.5 |
| 20260902135232 | 71 | 266 | 7.0 | 14.8 | 0.00 | 0.00 | 0.00 | 70 | 1020.6 |
| 20260902134732 | 71 | 239 | 6.1 | 13.0 | 0.00 | 0.00 | 0.00 | 71 | 1020.6 |
| 20260902134234 | 71 | 204 | 7.0 | 14.8 | 0.00 | 0.00 | 0.00 | 70 | 1020.5 |
| 20260902133731 | 71 | 229 | 7.8 | 14.8 | 0.00 | 0.00 | 0.00 | 69 | 1020.6 |
| 20260902133234 | 72 | 191 | 7.8 | 13.9 | 0.00 | 0.00 | 0.00 | 68 | 1020.6 |
| 20260902132730 | 72 | 245 | 8.7 | 16.5 | 0.00 | 0.00 | 0.00 | 67 | 1020.6 |
| 20260902132236 | 72 | 233 | 7.8 | 16.5 | 0.00 | 0.00 | 0.00 | 67 | 1020.6 |
| 20260902131733 | 72 | 208 | 6.1 | 14.8 | 0.00 | 0.00 | 0.00 | 69 | 1020.6 |
| 20260902131231 | 71 | 228 | 7.0 | 14.8 | 0.00 | 0.00 | 0.00 | 68 | 1020.6 |
| 20260902131151 | 72 | 229 | 7.8 | 15.6 | 0.00 | 0.00 | 0.00 | 67 | 1020.5 |
| 20260902130931 | 71 | 232 | 8.7 | 14.8 | 0.00 | 0.00 | 0.00 | 67 | 1020.6 |
| 20260902125939 | 71 | 280 | 7.0 | 15.6 | 0.00 | 0.00 | 0.00 | 69 | 1020.5 |
| 20260902124735 | 70 | 187 | 6.1 | 13.0 | 0.00 | 0.00 | 0.00 | 75 | 1020.6 |
| 20260902124231 | 69 | 208 | 7.0 | 12.2 | 0.00 | 0.00 | 0.00 | 75 | 1020.5 |
| 20260902124216 | 69 | 251 | 6.1 | 12.2 | 0.00 | 0.00 | 0.00 | 76 | 1020.7 |
| 20260902123234 | 69 | 233 | 3.5 | 9.6 | 0.00 | 0.00 | 0.00 | 80 | 1020.6 |
| 20260902122731 | 69 | 235 | 3.5 | 8.7 | 0.00 | 0.00 | 0.00 | 83 | 1020.6 |
| 20260902122720 | 68 | 225 | 4.3 | 8.7 | 0.00 | 0.00 | 0.00 | 83 | 1020.6 |
| 20260902121731 | 67 | 221 | 2.6 | 7.0 | 0.00 | 0.00 | 0.00 | 85 | 1020.6 |
| 20260902121232 | 67 | 241 | 2.6 | 7.0 | 0.00 | 0.00 | 0.00 | 85 | 1020.7 |
| 20260902120731 | 67 | 233 | 2.6 | 7.0 | 0.00 | 0.00 | 0.00 | 85 | 1020.7 |
| 20260902120231 | 67 | 235 | 2.6 | 7.0 | 0.00 | 0.00 | 0.00 | 84 | 1020.8 |
| 20260902115731 | 67 | 222 | 3.5 | 10.4 | 0.00 | 0.00 | 0.00 | 84 | 1020.8 |
| 20260902115232 | 67 | 202 | 5.2 | 10.4 | 0.00 | 0.00 | 0.00 | 83 | 1020.9 |
| 20260902114735 | 68 | 231 | 5.2 | 12.2 | 0.00 | 0.00 | 0.00 | 81 | 1021.0 |
| 20260902114724 | 68 | 233 | 5.2 | 12.2 | 0.00 | 0.00 | 0.00 | 81 | 1020.9 |
| 20260902113731 | 68 | 198 | 6.1 | 11.3 | 0.00 | 0.00 | 0.00 | 81 | 1020.9 |
| 20260902113231 | 68 | 261 | 5.2 | 11.3 | 0.00 | 0.00 | 0.00 | 81 | 1020.9 |
| 20260902112733 | 68 | 239 | 5.2 | 9.6 | 0.00 | 0.00 | 0.00 | 82 | 1020.9 |
| 20260902112230 | 68 | 185 | 5.2 | 9.6 | 0.00 | 0.00 | 0.00 | 82 | 1020.9 |
| 20260902111734 | 68 | 244 | 5.2 | 12.2 | 0.00 | 0.00 | 0.00 | 81 | 1021.0 |
| 20260902111232 | 68 | 248 | 5.2 | 12.2 | 0.00 | 0.00 | 0.00 | 81 | 1021.0 |
| 20260902110751 | 69 | 231 | 7.8 | 14.8 | 0.00 | 0.00 | 0.00 | 81 | 1020.9 |
| 20260902110735 | 68 | 238 | 6.1 | 13.0 | 0.00 | 0.00 | 0.00 | 81 | 1021.0 |
| 20260902110217 | 70 | 247 | 4.3 | 9.6 | 0.00 | 0.00 | 0.00 | 80 | 1020.9 |
| 20260902110209 | 70 | 181 | 5.2 | 13.9 | 0.00 | 0.00 | 0.00 | 79 | 1020.9 |
| 20260902105935 | 69 | 191 | 7.0 | 14.8 | 0.00 | 0.00 | 0.00 | 80 | 1020.9 |
| 20260902104232 | 70 | 229 | 4.3 | 9.6 | 0.00 | 0.00 | 0.00 | 80 | 1020.9 |
| 20260902103733 | 70 | 187 | 5.2 | 8.7 | 0.00 | 0.00 | 0.00 | 81 | 1020.8 |
| 20260902103231 | 70 | 261 | 4.3 | 9.6 | 0.00 | 0.00 | 0.00 | 81 | 1020.8 |
| 20260902102730 | 70 | 182 | 4.3 | 9.6 | 0.00 | 0.00 | 0.00 | 82 | 1020.8 |
| 20260902102230 | 70 | 196 | 4.3 | 8.7 | 0.00 | 0.00 | 0.00 | 82 | 1020.9 |
| 20260902102210 | 71 | 201 | 3.5 | 7.8 | 0.00 | 0.00 | 0.00 | 83 | 1020.9 |
| 20260902101232 | 69 | 216 | 4.3 | 10.4 | 0.00 | 0.00 | 0.00 | 83 | 1020.9 |
| 20260902100731 | 69 | 238 | 5.2 | 11.3 | 0.00 | 0.00 | 0.00 | 83 | 1021.0 |
| 20260902100231 | 68 | 214 | 4.3 | 11.3 | 0.00 | 0.00 | 0.00 | 85 | 1021.0 |
| 20260902095732 | 68 | 225 | 4.3 | 9.6 | 0.00 | 0.00 | 0.00 | 86 | 1020.9 |
| 20260902095233 | 67 | 190 | 4.3 | 8.7 | 0.00 | 0.00 | 0.00 | 87 | 1020.9 |
| 20260902094732 | 67 | 177 | 4.3 | 9.6 | 0.00 | 0.00 | 0.00 | 86 | 1020.9 |
| 20260902094233 | 67 | 192 | 4.3 | 9.6 | 0.00 | 0.00 | 0.00 | 87 | 1021.0 |
| 20260902093730 | 67 | 210 | 5.2 | 10.4 | 0.00 | 0.00 | 0.00 | 87 | 1021.0 |
| 20260902093232 | 67 | 234 | 4.3 | 10.4 | 0.00 | 0.00 | 0.00 | 87 | 1021.0 |
| 20260902093214 | 66 | 180 | 3.5 | 10.4 | 0.00 | 0.00 | 0.00 | 88 | 1020.9 |
| 20260902092231 | 66 | 182 | 4.3 | 10.4 | 0.00 | 0.00 | 0.00 | 89 | 1021.0 |
| 20260902091730 | 65 | 208 | 4.3 | 10.4 | 0.00 | 0.00 | 0.00 | 89 | 1020.9 |
| 20260902091717 | 65 | 241 | 4.3 | 10.4 | 0.00 | 0.00 | 0.00 | 89 | 1021.0 |
| 20260902090731 | 65 | 203 | 4.3 | 8.7 | 0.00 | 0.00 | 0.00 | 89 | 1021.0 |
| 20260902090234 | 65 | 210 | 3.5 | 8.7 | 0.00 | 0.00 | 0.00 | 89 | 1021.0 |
| 20260902085733 | 65 | 246 | 5.2 | 10.4 | 0.00 | 0.00 | 0.00 | 89 | 1020.9 |
| 20260902085229 | 65 | 251 | 4.3 | 10.4 | 0.00 | 0.00 | 0.00 | 89 | 1020.8 |
| 20260902084732 | 65 | 222 | 3.5 | 9.6 | 0.00 | 0.00 | 0.00 | 90 | 1020.8 |
| 20260902084232 | 65 | 254 | 3.5 | 7.8 | 0.00 | 0.00 | 0.00 | 90 | 1020.8 |
| 20260902083730 | 64 | 239 | 3.5 | 8.7 | 0.00 | 0.00 | 0.00 | 90 | 1020.7 |
| 20260902083231 | 64 | 228 | 4.3 | 8.7 | 0.00 | 0.00 | 0.00 | 90 | 1020.7 |
| 20260902082730 | 64 | 193 | 4.3 | 8.7 | 0.00 | 0.00 | 0.00 | 90 | 1020.6 |
| 20260902082236 | 64 | 208 | 3.5 | 7.8 | 0.00 | 0.00 | 0.00 | 90 | 1020.5 |
| 20260902081730 | 64 | 198 | 3.5 | 7.8 | 0.00 | 0.00 | 0.00 | 91 | 1020.4 |
| 20260902081230 | 63 | 221 | 2.6 | 7.0 | 0.00 | 0.00 | 0.00 | 91 | 1020.4 |
| 20260902080732 | 63 | 197 | 3.5 | 7.8 | 0.00 | 0.00 | 0.00 | 91 | 1020.4 |
| 20260902080232 | 63 | 233 | 3.5 | 7.8 | 0.00 | 0.00 | 0.00 | 91 | 1020.4 |
| 20260902080224 | 63 | 238 | 3.5 | 7.0 | 0.00 | 0.00 | 0.00 | 91 | 1020.4 |
| 20260902075230 | 62 | 196 | 4.3 | 9.6 | 0.00 | 0.00 | 0.00 | 91 | 1020.4 |
| 20260902074734 | 62 | 216 | 4.3 | 9.6 | 0.00 | 0.00 | 0.00 | 91 | 1020.4 |
| 20260902074232 | 62 | 205 | 2.6 | 7.0 | 0.00 | 0.00 | 0.00 | 92 | 1020.4 |
| 20260902073734 | 62 | 199 | 2.6 | 6.1 | 0.00 | 0.00 | 0.00 | 92 | 1020.3 |
| 20260902073235 | 62 | 204 | 3.5 | 7.8 | 0.00 | 0.00 | 0.00 | 92 | 1020.1 |
| 20260902072727 | 61 | 232 | 3.5 | 7.8 | 0.00 | 0.00 | 0.00 | 92 | 1020.2 |
| 20260902072228 | 61 | 223 | 4.3 | 8.7 | 0.00 | 0.00 | 0.00 | 92 | 1020.1 |
| 20260902071728 | 61 | 201 | 4.3 | 9.6 | 0.00 | 0.00 | 0.00 | 92 | 1020.2 |
| 20260902071228 | 61 | 212 | 5.2 | 10.4 | 0.00 | 0.00 | 0.00 | 92 | 1020.1 |
| 20260902070728 | 61 | 251 | 4.3 | 10.4 | 0.00 | 0.00 | 0.00 | 92 | 1020.1 |
| 20260902070229 | 61 | 180 | 4.3 | 8.7 | 0.00 | 0.00 | 0.00 | 92 | 1020.2 |
| 20260902065726 | 61 | 184 | 4.3 | 8.7 | 0.00 | 0.00 | 0.00 | 92 | 1020.1 |
| 20260902065228 | 61 | 189 | 4.3 | 10.4 | 0.00 | 0.00 | 0.00 | 92 | 1020.0 |
| 20260902064730 | 61 | 219 | 4.3 | 10.4 | 0.00 | 0.00 | 0.00 | 92 | 1020.0 |
| 20260902064227 | 61 | 172 | 3.5 | 8.7 | 0.00 | 0.00 | 0.00 | 92 | 1020.0 |
| 20260902063730 | 61 | 181 | 3.5 | 7.8 | 0.00 | 0.00 | 0.00 | 92 | 1020.0 |
| 20260902063228 | 60 | 177 | 3.5 | 7.0 | 0.00 | 0.00 | 0.00 | 92 | 1020.1 |
| 20260902062733 | 60 | 197 | 2.6 | 5.2 | 0.00 | 0.00 | 0.00 | 93 | 1020.1 |
| 20260902062727 | 60 | 191 | 2.6 | 7.0 | 0.00 | 0.00 | 0.00 | 93 | 1020.1 |
| 20260902062209 | 60 | 199 | 2.6 | 6.1 | 0.00 | 0.00 | 0.00 | 93 | 1019.9 |
| 20260902061218 | 59 | 186 | 2.6 | 6.1 | 0.00 | 0.00 | 0.00 | 93 | 1020.0 |
| 20260902060718 | 59 | 174 | 3.5 | 7.0 | 0.00 | 0.00 | 0.00 | 93 | 1019.9 |
| 20260902060216 | 59 | 158 | 3.5 | 7.0 | 0.00 | 0.00 | 0.00 | 93 | 1019.7 |
| 20260902055714 | 59 | 147 | 3.5 | 7.0 | 0.00 | 0.00 | 0.00 | 93 | 1019.8 |
| 20260902055215 | 59 | 233 | 3.5 | 7.8 | 0.00 | 0.00 | 0.00 | 93 | 1020.0 |
| 20260902054714 | 58 | 191 | 3.5 | 7.8 | 0.00 | 0.00 | 0.00 | 93 | 1019.9 |
| 20260902054215 | 58 | 193 | 3.5 | 7.0 | 0.00 | 0.00 | 0.00 | 93 | 1019.9 |
| 20260902053715 | 58 | 191 | 3.5 | 7.0 | 0.00 | 0.00 | 0.00 | 93 | 1019.8 |
| 20260902053215 | 58 | 179 | 2.6 | 5.2 | 0.00 | 0.00 | 0.00 | 92 | 1019.9 |
| 20260902052715 | 58 | 185 | 2.6 | 5.2 | 0.00 | 0.00 | 0.00 | 92 | 1019.7 |
| 20260902052216 | 58 | 179 | 3.5 | 5.2 | 0.00 | 0.00 | 0.00 | 92 | 1019.6 |
| 20260902051712 | 58 | 166 | 3.5 | 7.8 | 0.00 | 0.00 | 0.00 | 92 | 1019.7 |
| 20260902051211 | 58 | 172 | 3.5 | 7.8 | 0.00 | 0.00 | 0.00 | 92 | 1019.8 |
| 20260902050713 | 58 | 177 | 2.6 | 7.8 | 0.00 | 0.00 | 0.00 | 92 | 1019.7 |
| 20260902050210 | 58 | 164 | 2.6 | 7.0 | 0.00 | 0.00 | 0.00 | 92 | 1019.6 |
| 20260902045711 | 58 | 173 | 3.5 | 7.0 | 0.00 | 0.00 | 0.00 | 92 | 1019.7 |
| 20260902045210 | 58 | 177 | 3.5 | 6.1 | 0.00 | 0.00 | 0.00 | 92 | 1019.6 |
| 20260902045153 | 58 | 186 | 2.6 | 6.1 | 0.00 | 0.00 | 0.00 | 92 | 1019.6 |
| 20260902044209 | 58 | 171 | 2.6 | 6.1 | 0.00 | 0.00 | 0.00 | 92 | 1019.6 |
| 20260902043710 | 58 | 208 | 3.5 | 7.0 | 0.00 | 0.00 | 0.00 | 92 | 1019.5 |
| 20260902043206 | 58 | 181 | 3.5 | 7.0 | 0.00 | 0.00 | 0.00 | 92 | 1019.6 |
| 20260902042707 | 58 | 202 | 2.6 | 6.1 | 0.00 | 0.00 | 0.00 | 92 | 1019.7 |
| 20260902042653 | 58 | 180 | 2.6 | 6.1 | 0.00 | 0.00 | 0.00 | 92 | 1019.5 |
| 20260902041706 | 58 | 179 | 3.5 | 7.0 | 0.00 | 0.00 | 0.00 | 92 | 1019.6 |
| 20260902041654 | 58 | 154 | 2.6 | 6.1 | 0.00 | 0.00 | 0.00 | 92 | 1019.5 |
| 20260902041417 | 58 | 162 | 3.5 | 7.0 | 0.00 | 0.00 | 0.00 | 92 | 1019.6 |
| 20260902040205 | 58 | 166 | 2.6 | 7.0 | 0.00 | 0.00 | 0.00 | 92 | 1019.5 |
| 20260902035710 | 58 | 177 | 3.5 | 7.0 | 0.00 | 0.00 | 0.00 | 92 | 1019.6 |
| 20260902035209 | 58 | 169 | 2.6 | 5.2 | 0.00 | 0.00 | 0.00 | 92 | 1019.7 |
| 20260902034706 | 58 | 168 | 2.6 | 5.2 | 0.00 | 0.00 | 0.00 | 92 | 1019.7 |
| 20260902034205 | 58 | 173 | 2.6 | 5.2 | 0.00 | 0.00 | 0.00 | 92 | 1019.8 |
| 20260902033705 | 58 | 163 | 2.6 | 6.1 | 0.00 | 0.00 | 0.00 | 92 | 1019.8 |
| 20260902033641 | 58 | 183 | 2.6 | 6.1 | 0.00 | 0.00 | 0.00 | 92 | 1019.8 |
| 20260902032704 | 58 | 175 | 2.6 | 5.2 | 0.00 | 0.00 | 0.00 | 92 | 1019.9 |
| 20260902032203 | 58 | 172 | 2.6 | 7.0 | 0.00 | 0.00 | 0.00 | 92 | 1019.9 |
| 20260902031708 | 58 | 184 | 2.6 | 7.0 | 0.00 | 0.00 | 0.00 | 92 | 1019.9 |
| 20260902031204 | 58 | 159 | 2.6 | 6.1 | 0.00 | 0.00 | 0.00 | 92 | 1020.0 |
| 20260902030706 | 58 | 171 | 2.6 | 7.0 | 0.00 | 0.00 | 0.00 | 92 | 1020.0 |
| 20260902030205 | 58 | 167 | 2.6 | 7.0 | 0.00 | 0.00 | 0.00 | 92 | 1020.1 |
| 20260902025706 | 58 | 196 | 2.6 | 5.2 | 0.00 | 0.00 | 0.00 | 92 | 1020.1 |
| 20260902025637 | 59 | 167 | 2.6 | 5.2 | 0.00 | 0.01 | 0.00 | 92 | 1020.1 |
| 20260902024708 | 59 | 170 | 2.6 | 4.3 | 0.00 | 0.01 | 0.00 | 92 | 1020.2 |
| 20260902024656 | 59 | 181 | 2.6 | 5.2 | 0.00 | 0.01 | 0.00 | 92 | 1020.1 |
| 20260902023705 | 59 | 181 | 2.6 | 5.2 | 0.00 | 0.01 | 0.00 | 92 | 1020.1 |